Terminal Aerodrome Forecast
Issued by NWS

Home | Current Version | Previous Version | Text Only | Print | Product List | Glossary On
Versions: 1 2 3 4 5 6 7 8 9 10 11 12 13 14 15 16
000
FTUS45 KVEF 312320
TAFBIH
TAF
KBIH 312320Z 0100/0124 18014G22KT 6SM FU FEW250
     FM010300 16009KT 6SM FU SCT050 SCT250
     FM010900 32005KT P6SM FEW250
     FM011500 VRB05KT P6SM FEW250
     FM011800 17011G16KT P6SM FEW250
     FM012200 17018G27KT 6SM FU FEW250=

USA.gov is the U.S. government's official web portal to all federal, state and local government web resources and services.